Regional Weather Roundup
Issued by NWS New Orleans/Baton Rouge, LA

Home | Current Version | Previous Version | Text Only | Print | Product List | Glossary On
Versions: 1 2 3 4 5 6 7 8 9 10 11 12 13 14 15 16 17 18 19 20 21 22 23 24 25 26 27 28 29 30 31 32 33 34 35 36 37 38 39 40 41 42 43 44 45 46 47 48 49 50
000
ASUS44 KLIX 111410
RWRLIX
NEW ORLEANS REGIONAL WEATHER ROUNDUP
NATIONAL WEATHER SERVICE NEW ORLEANS LA
900 AM CDT FRI JUL 11 2014

NOTE: "FAIR" INDICATES FEW OR NO CLOUDS BELOW 12,000 FEET WITH NO
      SIGNIFICANT WEATHER AND/OR OBSTRUCTIONS TO VISIBILITY.
      SKY/WX - SKY CONDITION AND SIGNIFICANT WEATHER.
      TMP - AIR TEMPERATURE.     DP    - DEWPOINT TEMPERATURE.
      RH  - RELATIVE HUMIDITY.   PRES  - PRESSURE.
      HI  - HEAT INDEX.          WCI   - WIND CHILL INDEX.

*  THESE STATIONS ARE NOT NWS OR FAA STATIONS AND ARE NOT UNDER
   NWS QUALITY CONTROL.

LAZ038-040-048-061>063-065>067-069-111500-
SOUTHEAST LOUISIANA

CITY           SKY/WX    TMP DP  RH WIND       PRES   REMARKS
N.O. AUDUBON     N/A     90  77  65 MISG        N/A  HX 102
N.O. INTL ARPT MOSUNNY   85  77  77 NW6       30.15R HX  95
N.O. LAKEFRONT SUNNY     85  76  74 N7        30.15R
N.O. DOWNTOWN*   N/A     84  72  65 CALM      30.15S
SLIDELL        SUNNY     82  74  76 N3        30.14S
BATON ROUGE    SUNNY     84  75  74 NW5       30.15R
BOOTHVILLE     SUNNY     84  77  79 N5        30.15R
BELLE CHASSE   PTSUNNY   86  73  65 VRB3      30.14R
BOGALUSA*        N/A     81  73  76 CALM      30.17R
GALLIANO*      NOT AVBL
NEW ROADS*       N/A     81  76  83 NW3       30.16R
GONZALES*        N/A     83  78  85 CALM      30.15R
HAMMOND*       SUNNY     82  73  74 NW3       30.16S
HOUMA*         SUNNY     84  73  70 N5        30.15R
PORT FOURCHON* SUNNY     86  75  70 N7        30.16R HX  95

$$

MSZ070-080>082-111500-
SOUTHERN MISSISSIPPI

CITY           SKY/WX    TMP DP  RH WIND       PRES   REMARKS
MCCOMB         SUNNY     80  73  79 W6        30.16R
GULFPORT       SUNNY     85  75  72 W5        30.14R
BILOXI         SUNNY     82  75  78 VRB1      30.15R
PASCAGOULA     SUNNY     82  74  76 CALM      30.15R
STENNIS ARPT*  SUNNY    N/A N/A N/A N5        30.15S

$$

COASTAL OBSERVATIONS
LAKE AND NEARSHORE STATIONS

STATION/POSITION TIME  TEMP    WIND        PRES    WAVE
                       AIR SEA DIR/SP/G            HT/PER
                 (UTC) (F)     (DEG/KT/KT) (MB)    (FT/S)
PASCAGOULA       1400   83      30/  2/  3 1020.4
WAVELAND YACHT   1400   80     310/  4/  7 1020.2
GRAND ISLE       1400   85 87  350/  5/  8 1021.4
SOUTHWEST PASS   1400   87 84   80/  3/  5 1021.1
NEW CANAL        1400   83 83  350/  5/  7 1021.3
SHELL BEACH      1400   83 81  330/  6/  7 1020.7

OFFSHORE STATIONS

STATION/POSITION TIME  TEMP    WIND        PRES    WAVE
                       AIR SEA DIR/SP/G            HT/PER
                 (UTC) (F)     (DEG/KT/KT) (MB)    (FT/S)
64 S DAUPHIN ISL 1340   83 85  310/  4/  6 1021.0

$$




USA.gov is the U.S. government's official web portal to all federal, state and local government web resources and services.